Regional Weather Roundup
Issued by NWS

Home | Current Version | Previous Version | Text Only | Print | Product List | Glossary On
Versions: 1 2 3 4 5 6 7 8 9 10 11 12 13 14 15 16 17 18 19 20 21 22 23 24 25 26 27 28 29 30 31 32 33 34 35 36 37 38 39 40 41 42 43 44 45 46 47 48 49 50
000
ASUS43 KLSX 211207
RWRMO

WEATHER SUMMARY FOR MISSOURI
NATIONAL WEATHER SERVICE SPRINGFIELD MO
600 AM CST SUN DEC 21 2014

NOTE: "FAIR" INDICATES FEW OR NO CLOUDS BELOW 12,000 FEET WITH NO
       SIGNIFICANT WEATHER AND/OR OBSTRUCTIONS TO VISIBILITY.
       CURRENT SKY AND/OR WEATHER CONDITIONS ARE NOT AVAILABLE FOR
       CHILLICOTHE AND FARMINGTON.

MOZ001>031-035>038-043-044-053-054-211300-
...NORTHERN AND WESTERN MISSOURI...

CITY           SKY/WX    TMP DP  RH WIND       PRES   REMARKS
KANSAS CTY INT CLOUDY    38  34  85 S14       30.05S WCI  30
6HR MIN TEMP:  34; 6HR MAX TEMP:  38;

KANSAS C DTWN  CLOUDY    39  35  86 S8        30.07S
6HR MIN TEMP:  35; 6HR MAX TEMP:  40;

LEE`S SUMMIT   CLOUDY    37  36  96 S5        30.07F FOG
6HR MIN TEMP:  35; 6HR MAX TEMP:  37;

ST JOSEPH      CLOUDY    37  34  89 S8        30.04F
6HR MIN TEMP:  32; 6HR MAX TEMP:  37;

CHILLICOTHE      N/A     40  35  83 S7        30.09F
6HR MIN TEMP:  36; 6HR MAX TEMP:  40;

KIRKSVILLE     CLOUDY    38  36  92 S7        30.11S
6HR MIN TEMP:  38; 6HR MAX TEMP:  39;


$$
MOZ066>068-077>081-088>096-101>105-211300-
...SOUTHWEST MISSOURI...

CITY           SKY/WX    TMP DP  RH WIND       PRES   REMARKS
SPRINGFIELD    CLOUDY    41  36  82 S9        30.10S
6HR MIN TEMP:  40; 6HR MAX TEMP:  41;

JOPLIN         CLOUDY    43  39  86 S8        30.09S
6HR MIN TEMP:  43; 6HR MAX TEMP:  43;


$$
MOZ032>034-039>042-045>050-055>058-069>072-211300-
...CENTRAL MISSOURI...

CITY           SKY/WX    TMP DP  RH WIND       PRES   REMARKS
COLUMBIA       CLOUDY    41  36  82 S9        30.14S
6HR MIN TEMP:  40; 6HR MAX TEMP:  41;

JEFFERSON CITY CLOUDY    42  35  76 S3        30.16S
6HR MIN TEMP:  41; 6HR MAX TEMP:  42;

ROLLA          CLOUDY    39  34  82 S9        30.14R
6HR MIN TEMP:  39; 6HR MAX TEMP:  40;

SEDALIA        CLOUDY    41  35  79 S8        30.12F
6HR MIN TEMP:  41; 6HR MAX TEMP:  42;

WARRENSBURG    CLOUDY    39  36  87 SE5       30.09F
OSAGE BEACH    CLOUDY    43  34  70 SE3       30.14S

$$
MOZ051-052-059>065-211300-
...EAST CENTRAL MISSOURI...

CITY           SKY/WX    TMP DP  RH WIND       PRES   REMARKS
ST LOUIS INTL  CLOUDY    41  32  70 SE9       30.22R
6HR MIN TEMP:  41; 6HR MAX TEMP:  42;

SPIRIT OF STL  CLOUDY    40  34  79 E5        30.20R
6HR MIN TEMP:  40; 6HR MAX TEMP:  41;

ST CHARLES     CLOUDY    39  34  82 SE9       30.21R
6HR MIN TEMP:  39; 6HR MAX TEMP:  40;


$$
MOZ072>076-082>087-097>100-106>115-211300-
...SOUTH CENTRAL AND SOUTHEAST MISSOURI...

CITY           SKY/WX    TMP DP  RH WIND       PRES   REMARKS
CAPE GIRARDEAU PTCLDY    29  28  96 CALM      30.25S
6HR MIN TEMP:  28; 6HR MAX TEMP:  34;

FARMINGTON     CLOUDY    37  34  87 E7        30.21S
6HR MIN TEMP:  37; 6HR MAX TEMP:  39;

POPLAR BLUFF   CLOUDY    38  29  70 CALM      30.23S
6HR MIN TEMP:  38; 6HR MAX TEMP:  41;

WEST PLAINS    CLOUDY    38  34  85 SE6       30.16F
6HR MIN TEMP:  38; 6HR MAX TEMP:  40;


$$



USA.gov is the U.S. government's official web portal to all federal, state and local government web resources and services.